Probability
0 0 0 0 0 0 0 0 0 0 0 0 0 0 0 0 0 0 0 1 1 1 0 0 1 3 4 3 2 1 1 0 0 0 1 2 3 3 3 3 2 1 0
0 0 0 0 0 0 0 0 0 0 0 0 0 0 0 0 0 0 0 2 3 2 1 1 2 4 4 3 2 2 1 0 0 0 1 2 3 4 4 3 2 1 0
0 0 0 0 0 0 0 0 0 0 0 0 0 0 0 0 0 0 0 1 3 3 2 2 3 4 4 4 3 2 1 0 0 0 0 1 2 3 4 3 2 1 0
0 0 0 0 0 0 0 0 0 0 0 0 0 0 0 0 0 0 0 1 2 3 3 3 3 4 4 3 3 2 1 0 0 0 0 0 0 1 2 1 1 0 0
0 0 0 0 0 0 0 0 0 0 0 0 0 0 0 0 0 0 0 0 1 2 3 3 3 3 3 3 3 3 2 1 0 0 0 0 0 0 0 1 0 0 0
0 0 0 0 0 0 0 0 0 0 0 0 0 0 0 0 0 0 0 0 0 1 2 2 2 3 3 3 2 2 1 1 0 0 0 0 0 0 0 0 0 0 0
0 0 0 0 0 0 0 0 0 0 0 0 0 0 0 0 0 0 0 0 0 0 0 0 1 2 2 2 1 0 0 0 0 0 0 0 0 0 0 0 0 0 1
0 0 0 0 0 0 0 0 0 0 0 0 0 0 0 0 0 0 0 0 0 0 0 0 0 1 2 2 1 0 0 0 0 0 0 0 0 0 0 0 0 0 1
0 0 0 0 0 0 0 0 0 0 0 0 0 0 0 0 0 0 0 0 0 1 0 0 0 0 2 2 1 0 0 0 0 0 0 0 0 0 0 0 0 0 1
0 0 0 0 0 0 0 0 0 0 0 0 0 0 0 0 0 0 0 0 0 0 0 0 0 0 1 1 1 0 0 0 0 0 0 0 0 0 0 0 0 0 0
0 0 0 0 0 0 0 0 0 0 0 0 0 0 0 0 0 0 0 0 0 0 0 0 0 0 0 0 0 0 0 0 0 0 0 0 0 0 0 0 0 0 0
0 0 0 0 0 0 0 0 0 0 0 0 0 0 0 0 0 0 0 0 0 0 0 0 0 0 0 0 0 0 0 0 0 0 0 0 0 0 0 0 0 0 0
0 0 0 0 0 0 0 0 0 0 0 0 0 0 0 0 0 0 0 0 0 0 0 0 0 0 0 0 0 0 0 0 0 0 0 0 0 0 0 0 0 0 0
0 0 0 0 0 0 0 0 0 0 0 0 0 0 0 0 0 0 0 0 0 0 0 0 0 0 0 0 0 0 0 0 0 0 0 0 0 0 0 0 0 0 0
0 0 0 0 0 0 0 0 0 0 0 0 0 0 0 0 0 0 0 0 0 0 0 0 0 0 0 0 0 0 0 0 0 0 0 0 0 0 0 0 0 0 0
0 0 0 0 0 0 0 0 0 0 0 0 0 0 0 0 0 0 0 0 0 0 0 0 0 0 0 0 0 0 0 0 0 0 0 0 0 0 0 0 0 0 0
0 0 0 0 0 0 0 0 0 0 0 0 0 0 0 0 0 0 0 0 0 0 0 0 0 0 0 0 0 0 0 0 0 0 0 0 0 0 0 0 0 1 1
0 0 0 0 0 0 0 0 0 0 0 0 0 0 0 0 0 0 0 0 0 0 0 0 0 0 0 0 0 0 0 0 0 0 0 0 0 0 0 0 0 1 2
0 0 0 0 0 0 0 0 0 0 0 0 0 0 0 0 0 0 0 0 0 0 0 0 0 0 0 0 0 0 0 0 0 0 0 0 0 0 0 0 0 1 1
0 0 0 0 0 0 0 0 0 0 0 0 0 0 0 0 0 0 0 0 0 0 0 0 0 0 0 0 0 0 0 0 0 0 0 0 0 0 0 1 1 1 0
0 0 0 0 0 0 0 0 0 0 0 0 0 0 0 0 0 0 0 0 0 0 0 0 0 0 0 0 0 0 0 0 0 0 0 0 0 0 0 1 2 1 1
0 0 0 0 0 0 0 0 0 0 0 0 0 0 0 0 0 0 0 0 0 0 0 0 0 0 0 0 0 0 0 0 0 0 0 0 0 0 0 1 1 1 0
0 0 0 0 0 0 0 0 0 0 0 0 0 0 0 0 0 0 0 0 0 0 0 0 0 0 0 0 0 0 0 0 0 0 0 0 0 0 0 0 0 0 0
0 0 0 0 0 0 0 0 0 0 0 0 0 0 0 0 0 0 0 0 0 0 0 0 0 0 0 0 0 0 0 0 0 0 0 0 0 0 0 0 0 0 0
0 0 0 0 0 0 0 0 0 0 0 0 0 0 0 0 0 0 0 0 0 0 0 0 0 0 0 0 0 0 0 0 0 0 0 0 0 0 0 0 0 0 0
0 0 0 0 0 0 0 0 0 0 0 0 0 0 0 0 0 0 0 0 0 0 0 0 0 0 0 0 0 0 0 0 0 0 0 0 0 0 0 0 0 0 0
Wind_Speed
2 3 2 2 4 5 6 7 7 7 7 8 8 8 8 7 7 8 8 8 8 8 9 9 9 9 8 8 8 8 8 8 9 8 8 8 8 7 7 8 7 4 6
2 2 1 3 4 5 6 6 6 7 7 7 8 8 8 8 7 8 9 9 9 9 9 9 9 8 8 8 8 9 9 9 9 9 9 8 8 7 8 8 7 4 6
0 1 1 3 4 5 5 6 6 7 7 7 7 8 8 8 8 9 9 9 9 9 8 9 9 8 8 8 9 9 10 10 9 10 9 5 5 7 7 7 6 7 6
1 0 1 3 4 5 5 6 6 7 7 8 8 8 8 8 8 9 9 9 9 9 9 9 9 8 9 9 9 9 9 10 10 9 5 4 4 7 7 7 7 7 6
1 1 1 3 4 5 5 5 6 7 7 7 7 7 7 7 8 8 9 9 9 9 9 9 9 9 9 9 9 9 9 10 10 8 5 4 3 6 6 6 6 7 6
1 1 1 3 4 5 5 5 5 6 7 7 7 7 6 7 7 8 8 8 8 9 9 9 9 8 8 8 8 9 9 10 9 5 5 4 3 6 7 7 7 7 7
1 1 1 3 4 4 5 5 6 6 6 7 7 7 7 7 8 8 8 8 8 8 8 9 9 10 10 9 9 9 9 10 6 5 4 4 4 7 7 7 7 7 7
1 2 2 3 3 4 4 5 5 6 6 6 7 7 7 7 7 7 7 8 8 8 8 9 9 10 10 10 10 10 10 9 6 5 4 3 6 8 8 8 7 7 7
2 2 2 2 3 3 4 4 4 5 5 6 7 7 7 7 7 7 7 8 8 8 9 9 10 11 11 12 12 12 11 11 6 4 5 3 6 8 8 8 7 7 7
2 2 2 2 3 3 3 3 4 5 5 6 7 7 8 8 8 8 7 7 8 9 9 10 10 11 12 12 13 12 12 9 5 5 3 4 7 7 8 8 7 7 7
1 1 1 2 2 2 2 3 4 4 5 5 5 7 7 5 5 5 7 8 8 9 10 10 11 11 12 12 13 12 9 4 5 4 3 6 7 8 8 7 7 6 7
1 1 1 1 1 2 2 3 3 3 3 3 3 3 3 3 3 5 7 9 9 9 10 11 11 10 8 5 8 9 4 5 4 3 4 7 7 8 8 7 7 7 7
1 1 1 0 1 1 1 1 1 2 2 2 3 3 3 3 3 4 3 4 5 7 5 7 7 5 5 4 4 4 5 4 3 3 4 8 8 8 8 7 7 7 7
0 1 0 0 1 1 1 1 1 1 1 1 2 2 2 2 2 2 2 3 3 3 4 4 4 5 5 5 5 5 5 4 3 3 4 8 8 8 8 8 7 7 7
1 0 0 1 1 1 1 1 1 1 1 1 1 2 2 2 2 2 2 3 3 3 3 3 4 5 5 5 5 5 5 5 5 4 4 9 9 8 8 8 7 7 8
1 1 1 2 1 2 1 1 1 1 1 2 2 2 2 2 2 2 2 3 3 3 3 3 4 4 4 4 5 5 5 4 4 4 4 6 9 9 9 9 8 8 8
1 1 1 2 2 2 2 2 1 1 2 2 1 2 2 2 3 3 2 2 2 2 3 4 4 4 4 4 5 5 4 4 5 5 5 4 5 8 9 9 9 9 10
2 2 1 2 3 2 2 2 2 2 2 2 1 2 2 2 3 3 2 2 2 2 3 3 3 4 4 4 3 4 4 4 5 5 5 5 4 4 7 11 10 10 10
3 2 2 2 2 2 2 2 2 2 2 2 2 2 2 2 3 3 2 2 3 3 2 3 3 3 3 3 3 4 4 4 4 5 6 6 5 5 4 7 11 11 11
2 3 2 2 2 3 3 3 2 3 2 2 2 1 1 2 2 3 2 3 3 3 3 3 4 3 3 2 4 4 4 4 4 5 5 5 5 6 6 6 5 7 11
2 2 2 2 2 2 2 1 1 1 1 2 2 1 1 2 2 3 2 3 3 3 3 3 3 3 2 2 3 3 4 4 5 4 4 4 5 5 6 6 5 4 5
2 2 2 2 2 1 1 1 1 1 1 1 1 2 2 1 1 2 3 2 3 3 3 3 3 2 1 1 2 2 2 4 4 4 4 4 4 4 5 6 5 5 4
2 2 2 2 2 1 1 2 2 2 2 2 2 2 2 1 1 2 2 3 3 3 3 3 3 3 2 1 1 3 2 1 1 3 3 3 4 3 3 3 5 5 5
2 2 2 2 2 1 2 2 2 1 0 1 1 1 2 1 1 1 2 2 2 2 3 3 3 2 3 1 1 1 1 3 2 1 3 3 3 3 3 3 4 4 4
2 2 2 2 2 1 1 2 2 1 0 0 1 1 2 2 2 1 1 2 2 2 2 2 2 2 2 2 2 1 2 2 2 2 0 2 2 2 2 2 2 3 3
2 2 2 2 1 1 2 2 2 2 1 1 1 1 1 1 2 2 1 1 1 1 2 2 2 2 2 2 2 2 2 2 2 2 2 1 1 2 2 2 2 2 2
Wind_Direction
286 288 316 51 53 58 60 62 63 61 62 66 69 72 73 79 86 87 89 91 92 92 93 91 90 88 85 82 83 86 86 89 87 85 91 94 93 94 96 96 91 88 101
250 294 359 78 73 68 63 63 66 66 65 68 70 72 71 77 81 88 88 87 88 88 89 88 88 88 86 84 83 84 84 91 91 87 82 79 83 89 93 92 93 95 99
240 315 34 87 85 78 73 69 69 70 68 69 71 71 71 71 76 80 85 85 83 83 83 84 85 84 83 82 81 82 82 82 87 85 79 62 68 86 92 93 93 95 98
161 360 44 87 83 80 77 73 73 69 67 68 69 69 69 68 75 80 81 82 79 78 78 80 81 81 81 82 80 81 82 79 79 77 65 55 59 85 92 94 93 94 93
87 41 37 81 84 82 79 74 74 70 70 68 67 70 71 72 76 78 81 81 79 76 76 79 78 78 78 79 79 81 81 79 74 66 58 53 51 81 88 92 92 89 86
62 30 57 88 88 84 80 77 75 71 69 65 65 67 71 74 80 81 81 81 81 79 76 75 76 77 77 78 82 84 83 77 66 58 55 52 55 76 81 83 85 85 83
75 20 58 89 89 88 80 77 77 71 66 63 66 68 72 76 77 79 80 81 80 78 77 74 74 76 75 76 79 83 85 80 67 56 51 48 58 71 75 78 79 76 78
80 36 40 70 76 78 78 76 77 73 67 64 63 66 69 72 75 75 77 77 76 77 78 75 73 73 71 72 77 80 81 76 68 60 49 45 63 69 68 69 71 72 74
60 51 25 18 32 49 60 65 69 66 66 64 60 58 61 63 68 71 73 75 77 75 74 72 73 73 71 71 75 76 74 71 61 50 53 47 65 65 64 63 64 62 61
40 36 16 15 22 20 16 37 50 54 57 57 57 55 54 52 56 60 61 67 75 75 72 73 75 76 73 71 72 72 68 60 50 46 38 51 62 63 63 63 60 58 54
11 3 3 8 12 12 357 16 33 39 42 42 47 50 48 37 37 45 54 61 68 71 72 74 75 73 70 65 67 66 59 45 44 39 32 54 60 61 62 61 58 57 55
287 295 297 339 358 10 6 23 20 24 29 39 45 43 41 40 40 50 45 56 65 69 71 72 72 68 65 54 55 57 50 43 40 32 37 51 56 59 60 56 56 56 57
251 284 269 280 356 18 10 22 25 26 34 41 51 52 49 44 41 44 40 41 47 58 57 61 61 55 57 58 53 49 46 44 34 26 33 48 55 56 55 51 52 53 54
87 276 306 96 58 33 32 31 40 41 41 40 46 67 72 59 49 50 50 44 47 52 62 59 63 61 59 58 58 53 45 39 31 22 28 43 50 54 54 52 52 52 54
126 104 101 95 100 91 70 37 55 50 56 57 60 67 90 87 73 66 56 55 54 60 69 68 67 66 60 53 54 55 46 39 33 28 18 31 39 46 51 52 52 52 54
133 115 88 100 111 102 91 86 62 53 58 63 61 74 101 103 101 90 76 65 57 61 71 75 74 72 64 62 56 51 47 38 33 28 23 20 30 40 46 49 52 55 57
152 115 99 111 95 95 91 86 78 61 57 62 61 63 87 104 110 107 95 78 68 70 79 78 73 70 68 63 54 47 45 38 36 31 28 27 23 33 42 48 50 56 61
135 121 114 109 105 100 81 72 68 65 65 56 60 58 70 96 110 108 104 91 85 83 83 84 75 72 63 59 53 40 40 35 34 36 37 34 31 29 32 42 48 54 58
149 138 115 96 98 99 86 69 62 61 54 43 52 62 75 96 109 112 111 105 98 90 83 93 78 85 79 68 65 51 39 35 29 38 39 37 34 33 31 35 42 47 54
127 118 115 99 88 86 72 60 49 45 33 27 34 49 76 94 110 117 113 115 111 101 86 87 89 74 78 75 73 58 42 36 36 36 34 35 34 38 40 42 38 36 46
99 108 120 122 105 95 83 76 66 35 8 10 17 47 68 86 109 120 123 121 122 118 122 120 107 90 70 77 77 50 30 36 43 34 29 35 34 36 42 44 43 41 35
141 138 142 145 138 134 124 129 124 111 33 359 358 35 53 79 115 133 136 137 134 124 123 125 122 110 79 62 98 88 31 11 13 24 25 36 30 34 41 44 43 42 37
164 171 171 161 147 126 107 86 63 46 27 17 11 9 6 39 90 113 140 144 146 148 156 157 149 139 139 59 77 125 129 182 335 351 13 28 27 33 28 32 41 37 37
198 171 148 134 125 113 121 117 115 118 137 268 293 324 354 19 69 111 143 145 148 152 162 174 163 150 144 149 83 69 127 149 142 356 345 3 21 31 24 31 30 30 33
163 150 138 125 109 94 105 126 123 102 139 334 6 20 8 2 24 54 135 137 143 151 164 165 157 161 157 161 160 144 101 82 107 139 237 335 0 5 19 22 25 24 26
132 132 129 126 116 102 106 110 131 134 121 80 31 22 5 355 2 18 92 127 144 152 163 169 164 163 165 158 162 157 155 151 163 148 163 210 341 336 6 19 23 13 21